Voltar ao catálogo

STARLINK-6041

AtivoComunicaçõesVLEO
NORAD 56478·PAYLOAD·🇺🇸 United States

Lançado May 10, 2023 de Vandenberg Space Force Base

Loading…

Próximas Passagens (próximas 24 horas)

TLE

AtualizadoSource: CelesTrak SupGP

Época: Sep 15, 2026, 02:01 UTC

1 56478C 23064AG  26258.08451389  .00503730  00000+0  39492-1 0  2589
2 56478  70.0004   6.9123 0003185 270.4839 288.5177 15.00638510    12

Acompanhe STARLINK-6041 em tempo real com AllMySat

Download on the App Store